EW3857 Weather Reports


Display with metric or nautical units.
time (UTC)temp
F
wind
direction
speed
MPH
gust
MPH
rain 1hr
in
rain 24hr
in
rain mn
in
humidity
%
barometer
mb
20260502202718 65 348 7.0 9.0 0.00 0.00 0.00 40 1017.4
20260502202217 66 355 7.0 8.0 0.00 0.00 0.00 38 1017.5
20260502201714 66 343 4.0 5.0 0.00 0.00 0.00 38 1017.4
20260502201210 66 336 6.0 6.0 0.00 0.00 0.00 38 1017.5
20260502200706 67 279 3.0 5.0 0.00 0.00 0.00 34 1017.4
20260502200202 65 357 6.0 9.0 0.00 0.00 0.00 38 1017.5
20260502195701 66 350 8.0 11.0 0.00 0.00 0.00 35 1017.6
20260502195157 66 28 3.0 3.0 0.00 0.00 0.00 38 1017.7
20260502194654 66 22 6.0 8.0 0.00 0.00 0.00 37 1017.7
20260502194150 66 328 5.0 8.0 0.00 0.00 0.00 35 1017.6
20260502193647 66 274 2.0 3.0 0.00 0.00 0.00 39 1017.8
20260502193144 67 291 3.0 5.0 0.00 0.00 0.00 41 1017.7
20260502192639 65 336 4.0 6.0 0.00 0.00 0.00 41 1017.6
20260502192137 64 346 6.0 7.0 0.00 0.00 0.00 40 1017.8
20260502191634 64 2 4.0 6.0 0.00 0.00 0.00 39 1017.7
20260502191131 65 348 6.0 8.0 0.00 0.00 0.00 38 1018.0
20260502190629 65 330 5.0 6.0 0.00 0.00 0.00 38 1018.2
20260502190126 65 325 6.0 8.0 0.00 0.00 0.00 38 1017.9
20260502185620 65 1 5.0 6.0 0.00 0.00 0.00 42 1017.9
20260502185118 66 23 10.0 11.0 0.00 0.00 0.00 36 1018.2
20260502184614 67 330 3.0 3.0 0.00 0.00 0.00 38 1018.3
20260502184109 65 282 3.0 3.0 0.00 0.00 0.00 38 1018.0
20260502183606 64 311 5.0 7.0 0.00 0.00 0.00 40 1018.2
20260502183102 64 0 14.0 17.0 0.00 0.00 0.00 35 1018.5
20260502182557 65 341 11.0 13.0 0.00 0.00 0.00 36 1018.2
20260502182053 64 349 5.0 6.0 0.00 0.00 0.00 35 1018.3
20260502181551 65 318 9.0 10.0 0.00 0.00 0.00 34 1018.5
20260502181050 64 337 7.0 8.0 0.00 0.00 0.00 36 1018.0
20260502180547 65 354 2.0 3.0 0.00 0.00 0.00 40 1018.2
20260502170500 64 349 4.0 5.0 0.00 0.00 0.00 44 1018.4
20260502163944 62 354 3.0 5.0 0.00 0.00 0.00 45 1018.8
20260502163439 62 359 7.0 8.0 0.00 0.00 0.00 46 1018.8
20260502162937 62 270 4.0 6.0 0.00 0.00 0.00 48 1018.9
20260502162434 61 269 3.0 5.0 0.00 0.00 0.00 44 1018.8
20260502161931 61 21 7.0 9.0 0.00 0.00 0.00 47 1018.7
20260502161427 60 352 8.0 9.0 0.00 0.00 0.00 47 1018.8
20260502160925 60 332 5.0 6.0 0.00 0.00 0.00 47 1019.0
20260502160423 60 13 9.0 11.0 0.00 0.00 0.00 47 1019.0
20260502151901 58 10 8.0 11.0 0.00 0.00 0.00 49 1018.7
20260502151357 58 0 10.0 11.0 0.00 0.00 0.00 49 1018.9
20260502150855 58 341 7.0 8.0 0.00 0.00 0.00 51 1018.8
20260502150351 58 27 6.0 8.0 0.00 0.00 0.00 52 1018.6
20260502130740 55 305 2.0 2.0 0.00 0.00 0.00 62 1017.8
20260502130237 55 342 5.0 5.0 0.00 0.00 0.00 64 1017.8
20260502123723 54 283 1.0 1.0 0.00 0.00 0.00 64 1017.8
20260502123220 54 294 1.0 1.0 0.00 0.00 0.00 62 1017.7
20260502122717 54 333 3.0 3.0 0.00 0.00 0.00 66 1017.7
20260502122213 54 301 2.0 2.0 0.00 0.00 0.00 66 1017.5
20260502121711 54 318 1.0 2.0 0.00 0.00 0.00 65 1017.5
20260502121209 53 315 1.0 1.0 0.00 0.00 0.00 65 1017.5
20260502120705 53 305 1.0 1.0 0.00 0.00 0.00 64 1017.5
20260502120202 53 290 0.0 1.0 0.00 0.00 0.00 64 1017.4
20260502115700 54 277 0.0 0.0 0.00 0.00 0.00 63 1017.2
20260502115156 54 291 0.0 1.0 0.00 0.00 0.00 62 1017.0
20260502114652 54 291 1.0 1.0 0.00 0.00 0.00 62 1017.1
20260502114149 54 280 1.0 1.0 0.00 0.00 0.00 62 1016.9
20260502113646 53 307 2.0 2.0 0.00 0.00 0.00 63 1016.9
20260502113145 53 289 0.0 1.0 0.00 0.00 0.00 62 1016.9
20260502112642 53 286 0.0 0.0 0.00 0.00 0.00 62 1016.9
20260502112139 53 279 0.0 0.0 0.00 0.00 0.00 63 1016.8
20260502111637 53 276 0.0 0.0 0.00 0.00 0.00 62 1016.7
20260502111134 53 306 1.0 1.0 0.00 0.00 0.00 62 1016.7
20260502110632 53 287 0.0 0.0 0.00 0.00 0.00 61 1016.7
20260502110129 53 279 0.0 0.0 0.00 0.00 0.00 61 1017.0
20260502105626 53 297 1.0 1.0 0.00 0.00 0.00 61 1016.6
20260502105123 53 320 5.0 6.0 0.00 0.00 0.00 60 1016.7
20260502104620 53 338 1.0 1.0 0.00 0.00 0.00 63 1016.7
20260502104118 54 320 1.0 2.0 0.00 0.00 0.00 61 1016.9
20260502103615 54 294 1.0 1.0 0.00 0.00 0.00 60 1017.0
20260502103113 54 285 0.0 1.0 0.00 0.00 0.00 59 1017.0
20260502102610 54 305 1.0 2.0 0.00 0.00 0.00 59 1016.7
20260502102106 54 286 1.0 1.0 0.00 0.00 0.00 59 1016.8
20260502101604 54 333 3.0 3.0 0.00 0.00 0.00 58 1016.6
20260502101102 54 280 1.0 2.0 0.00 0.00 0.00 57 1016.3
20260502100601 54 306 1.0 1.0 0.00 0.00 0.00 58 1016.4
20260502091033 55 338 4.0 6.0 0.00 0.00 0.00 53 1016.8
20260502090529 56 336 4.0 5.0 0.00 0.00 0.00 54 1016.6
20260502071419 57 284 2.0 2.0 0.00 0.00 0.00 51 1017.0
20260502070917 57 345 9.0 14.0 0.00 0.00 0.00 49 1016.6
20260502070414 57 348 4.0 5.0 0.00 0.00 0.00 51 1016.9
20260502065912 57 6 8.0 9.0 0.00 0.00 0.00 49 1017.2
20260502065411 57 1 5.0 6.0 0.00 0.00 0.00 51 1017.0
20260502064908 58 356 5.0 7.0 0.00 0.00 0.00 49 1017.0
20260502064406 58 342 4.0 6.0 0.00 0.00 0.00 48 1016.9
20260502063903 58 354 7.0 8.0 0.00 0.00 0.00 49 1017.0
20260502063401 58 359 6.0 6.0 0.00 0.00 0.00 49 1017.0
20260502062858 58 20 6.0 7.0 0.00 0.00 0.00 50 1017.1
20260502062355 58 345 6.0 7.0 0.00 0.00 0.00 49 1017.1
20260502061854 58 9 4.0 6.0 0.00 0.00 0.00 52 1017.1
20260502061351 58 351 6.0 8.0 0.00 0.00 0.00 49 1017.3
20260502060847 58 327 2.0 2.0 0.00 0.00 0.00 51 1017.4
20260502060343 58 359 6.0 7.0 0.00 0.00 0.00 49 1017.3
20260502055840 59 347 6.0 8.0 0.00 0.00 0.00 51 1017.3
20260502055338 59 2 8.0 9.0 0.00 0.00 0.00 49 1017.3
20260502054837 59 5 5.0 6.0 0.00 0.00 0.00 52 1017.1
20260502054334 58 334 3.0 3.0 0.00 0.00 0.00 54 1017.0
20260502053831 59 338 5.0 8.0 0.00 0.00 0.00 51 1017.0
20260502053328 59 349 6.0 7.0 0.00 0.00 0.00 53 1016.9
20260502052826 59 344 3.0 3.0 0.00 0.00 0.00 58 1016.9
20260502052324 59 353 2.0 2.0 0.00 0.00 0.00 57 1017.1
20260502051822 59 309 2.0 2.0 0.00 0.00 0.00 56 1017.2
20260502051320 59 4 3.0 5.0 0.00 0.00 0.00 58 1016.9
20260502050816 59 327 3.0 5.0 0.00 0.00 0.00 57 1016.8
20260502050313 59 16 6.0 7.0 0.00 0.00 0.00 60 1017.0
20260502045810 59 17 6.0 7.0 0.00 0.00 0.00 61 1016.7
20260502045306 59 354 4.0 5.0 0.00 0.00 0.00 62 1016.5
20260502044804 59 12 6.0 7.0 0.00 0.00 0.00 64 1016.6
20260502044259 60 333 3.0 3.0 0.00 0.00 0.00 65 1016.7
20260502043757 60 338 3.0 3.0 0.00 0.00 0.00 65 1016.7
20260502043254 59 342 4.0 6.0 0.00 0.00 0.00 67 1016.7
20260502042754 59 312 2.0 2.0 0.00 0.00 0.00 74 1016.9
20260502042251 59 280 0.0 0.0 0.00 0.00 0.00 73 1016.5
20260502041749 59 294 0.0 1.0 0.00 0.00 0.00 74 1016.9
20260502041246 59 284 0.0 1.0 0.00 0.00 0.00 74 1016.4
20260502040743 59 309 1.0 1.0 0.00 0.00 0.00 76 1016.6
20260502040240 59 298 1.0 1.0 0.00 0.00 0.00 75 1016.6
20260502035736 59 317 1.0 1.0 0.00 0.00 0.00 75 1016.5
20260502035233 59 285 0.0 0.0 0.00 0.00 0.00 74 1016.6
20260502034730 59 277 0.0 0.0 0.00 0.00 0.00 73 1016.6
20260502034228 59 281 1.0 1.0 0.00 0.00 0.00 73 1016.9
20260502033726 59 295 1.0 1.0 0.00 0.00 0.00 73 1016.7
20260502033224 60 279 0.0 0.0 0.00 0.00 0.00 73 1016.9
20260502032720 60 282 0.0 0.0 0.00 0.00 0.00 73 1016.8
20260502032216 60 282 0.0 0.0 0.00 0.00 0.00 72 1016.8
20260502031714 60 305 1.0 1.0 0.00 0.00 0.00 72 1017.0
20260502031212 60 291 0.0 1.0 0.00 0.00 0.00 72 1016.9
20260502030710 60 2 2.0 2.0 0.00 0.00 0.00 73 1017.0
20260502030208 60 276 1.0 1.0 0.00 0.00 0.00 74 1017.0
20260502025705 59 332 1.0 2.0 0.00 0.00 0.00 74 1017.2
20260502025203 59 253 0.0 1.0 0.00 0.00 0.00 74 1017.1
20260502024700 58 260 0.0 0.0 0.00 0.00 0.00 76 1017.1
20260502024158 58 260 0.0 0.0 0.00 0.00 0.00 78 1017.0
20260502023656 58 260 0.0 0.0 0.00 0.00 0.00 79 1016.9
20260502023153 58 255 0.0 0.0 0.00 0.00 0.00 78 1016.9
20260502022650 58 253 0.0 0.0 0.00 0.00 0.00 79 1016.7
20260502022147 58 254 0.0 0.0 0.00 0.00 0.00 79 1016.8
20260502021644 58 259 0.0 0.0 0.00 0.00 0.00 77 1016.7
20260502021141 58 254 0.0 0.0 0.00 0.00 0.00 78 1016.6
20260502020638 58 255 0.0 0.0 0.00 0.00 0.00 78 1016.6
20260502020135 58 257 0.0 0.0 0.00 0.00 0.00 78 1016.5
20260502015633 58 245 1.0 1.0 0.00 0.00 0.00 79 1016.6
20260502015129 58 261 0.0 0.0 0.00 0.00 0.00 79 1016.5
20260502014627 58 263 0.0 0.0 0.00 0.00 0.00 80 1016.4
20260502014124 58 259 0.0 0.0 0.00 0.00 0.00 82 1016.5
20260502013620 58 264 0.0 0.0 0.00 0.00 0.00 81 1016.3
20260502013115 58 268 0.0 0.0 0.00 0.00 0.00 80 1016.2
20260502012613 58 261 0.0 0.0 0.00 0.00 0.00 78 1016.4
20260502012111 58 261 0.0 0.0 0.00 0.00 0.00 76 1016.3
20260502011607 58 260 0.0 0.0 0.00 0.00 0.00 76 1016.3
20260502011103 59 260 0.0 0.0 0.00 0.00 0.00 79 1016.4
20260502010601 59 246 0.0 0.0 0.00 0.00 0.00 77 1016.3
20260502010057 59 269 0.0 0.0 0.00 0.00 0.00 77 1016.2
20260502005555 59 268 0.0 1.0 0.00 0.00 0.00 76 1016.0
20260502005053 59 264 0.0 0.0 0.00 0.00 0.00 76 1015.9
20260502004548 59 263 1.0 1.0 0.00 0.00 0.00 76 1016.2
20260502004045 59 267 1.0 1.0 0.00 0.00 0.00 79 1015.8
20260502003543 59 268 1.0 1.0 0.00 0.00 0.00 78 1015.9
20260502003040 59 266 1.0 1.0 0.00 0.00 0.00 75 1015.8
20260502002536 59 270 1.0 1.0 0.00 0.00 0.00 77 1015.8
20260502002033 60 268 1.0 1.0 0.00 0.00 0.00 77 1015.7
20260502001531 60 268 1.0 1.0 0.00 0.00 0.00 78 1015.4
20260502001028 60 266 0.0 1.0 0.00 0.00 0.00 76 1015.5
20260502000526 60 289 0.0 0.0 0.00 0.00 0.00 75 1015.8
20260502000023 60 266 0.0 0.0 0.00 0.00 0.00 74 1015.8
20260501235519 60 266 1.0 1.0 0.00 0.00 0.00 74 1015.6
20260501235014 61 265 1.0 1.0 0.00 0.00 0.00 74 1015.5
20260501234510 61 265 1.0 1.0 0.00 0.00 0.00 73 1015.5
20260501234009 61 268 0.0 0.0 0.00 0.00 0.00 73 1015.2
20260501233507 61 268 1.0 1.0 0.00 0.00 0.00 75 1015.4
20260501233003 61 266 1.0 1.0 0.00 0.00 0.00 75 1015.4
20260501232459 62 266 1.0 1.0 0.00 0.00 0.00 76 1015.7
20260501231956 62 266 0.0 0.0 0.00 0.00 0.00 73 1015.6
20260501231455 63 255 0.0 0.0 0.00 0.00 0.00 72 1015.3
20260501230953 63 254 0.0 0.0 0.00 0.00 0.00 72 1015.5
20260501230451 63 256 0.0 0.0 0.00 0.00 0.00 70 1015.7
20260501225948 64 257 0.0 0.0 0.00 0.00 0.00 71 1015.8
20260501225446 64 259 0.0 0.0 0.00 0.00 0.00 68 1015.8
20260501224941 64 259 0.0 0.0 0.00 0.00 0.00 68 1015.6
20260501224439 64 274 0.0 0.0 0.00 0.00 0.00 59 1015.5
20260501223936 64 286 0.0 0.0 0.00 0.00 0.00 55 1015.4
20260501223432 64 302 1.0 1.0 0.00 0.00 0.00 56 1015.2
20260501222928 64 303 1.0 2.0 0.00 0.00 0.00 56 1015.1
20260501222426 65 332 2.0 2.0 0.00 0.00 0.00 55 1015.1
20260501221921 65 293 1.0 1.0 0.00 0.00 0.00 55 1015.2
20260501221419 65 287 0.0 0.0 0.00 0.00 0.00 56 1015.5
20260501220917 64 292 2.0 2.0 0.00 0.00 0.00 57 1015.4
20260501220414 65 15 3.0 3.0 0.00 0.00 0.00 55 1015.0
20260501215910 64 13 4.0 6.0 0.00 0.00 0.00 56 1015.0
20260501215407 64 10 4.0 6.0 0.00 0.00 0.00 57 1015.0
20260501214902 65 350 5.0 6.0 0.00 0.00 0.00 55 1015.1
20260501214357 65 13 3.0 5.0 0.00 0.00 0.00 60 1015.1
20260501213853 65 297 2.0 2.0 0.00 0.00 0.00 56 1014.9
20260501213350 65 302 1.0 1.0 0.00 0.00 0.00 59 1015.0
20260501212846 64 353 4.0 6.0 0.00 0.00 0.00 57 1015.1
20260501212343 64 340 3.0 3.0 0.00 0.00 0.00 59 1015.0
20260501211840 64 354 4.0 5.0 0.00 0.00 0.00 59 1015.3
20260501211337 64 4 3.0 3.0 0.00 0.00 0.00 57 1015.3
20260501210834 65 329 1.0 1.0 0.00 0.00 0.00 56 1015.3
20260501210331 64 354 4.0 5.0 0.00 0.00 0.00 59 1015.6
20260501205827 65 354 3.0 3.0 0.00 0.00 0.00 60 1015.8
20260501205325 64 348 1.0 2.0 0.00 0.00 0.00 58 1015.7
20260501204821 64 41 5.0 7.0 0.00 0.00 0.00 60 1015.9
20260501204318 65 1 2.0 2.0 0.00 0.00 0.00 57 1016.0
20260501203814 66 312 0.0 0.0 0.00 0.00 0.00 54 1016.1
20260501203311 66 330 1.0 1.0 0.00 0.00 0.00 56 1016.4